sat.trackr.live / text

‹ back to catalog

ONEWEB-0024

NORAD 45137 · 2020-008G

PAYLOAD ACTIVE UNKNOWN

§ Identity

Operator
Country
UK
Launch date
2020-02-06
Launch site
TYMSC
Launch vehicle
Mass (kg)
RCS (m²)

Purposes: comms

External: N2YO · Heavens-Above · Gunter

§ Orbital elements

Epoch: 2026-05-25T03:17:52.223136Z

Period
109.89 min
Inclination
87.8868°
Eccentricity
0.0001804
Mean motion
13.10374135 rev/d
Perigee alt
1,220.3 km
Apogee alt
1,223.1 km
Semi-major
7,599.8 km
B*
-4.7498e-4
RAAN
40.8443°
Arg perigee
78.6576°
Mean anomaly
281.4754°
Rev number
30,522

§ Raw data

ONEWEB-00241 45137U 20008G   26145.13740999 -.00000153  00000+0 -47498-3 0  99952 45137  87.8868  40.8443 0001804  78.6576 281.4754 13.10374135305223

JSON: /api/v1/satellites/45137 · /tle

For live sub-satellite position, see the globe view (requires WebGL).

§ Visibility from observer

Set your observer location to see the next 7 days of passes ≥ 10°. The values pass through the URL so the page stays shareable.

No JS? Fill the form by hand. The geolocation button needs JavaScript.